Montpelier, VT

12:18 PM EST on December 12, 2019 (GMT -0500)
Knapp State

Weather History for KMPV - July, 2019

Change the Weather History Date:

Saturday, July 27, 2019

  Actual Average Record
Temperature  
Mean Temperature 69 °F 67 °F  
Max Temperature 83 °F 78 °F 92 °F (1949)
Min Temperature 55 °F 56 °F 40 °F (2001)
Degree Days  
Heating Degree Days 0 1  
Month to date heating degree days 9 33  
Since 1 June heating degree days 153 154  
Since 1 July heating degree days 9 33  
Cooling Degree Days 4 3  
Month to date cooling degree days 105 85  
Year to date cooling degree days 125 148  
Since 1 June cooling degree days 124 138  
Growing Degree Days 19 (Base 50)    
Moisture  
Dew Point 58 °F    
Average Humidity 84    
Maximum Humidity 100    
Minimum Humidity 47    
Precipitation  
Precipitation 0.01 in 0.14 in 1.69 in (1949)
Month to date precipitation 2.81 3.48  
Year to date precipitation 27.74 20.19  
Sea Level Pressure  
Sea Level Pressure 30.29 in    
Wind  
Wind Speed 1 mph ()    
Max Wind Speed 13 mph    
Max Gust Speed 16 mph    
Visibility 6.1 miles    
Events Fog    
T = Trace of Precipitation, MM = Missing Value Source: Averaged Metar Reports

Daily Weather History Graph

Daily Weather History Graph

Search for Another Location

Airport or City:

Astronomy

Jul. 27, 2019 Rise Set
Actual Time 5:32 AM EDT 8:20 PM EDT
Civil Twilight 4:58 AM EDT 8:54 PM EDT
Nautical Twilight 4:15 AM EDT 9:36 PM EDT
Astronomical Twilight 3:25 AM EDT 10:26 PM EDT
Moon 1:18 AM EDT (7/27) 4:08 PM EDT (7/27)
Length of Visible Light 15h 55m
Length of Day
14h 48m
Waning Crescent, 24% of the Moon is Illuminated
Jul 27
Waning Crescent
Jul 31
New
Aug 7
First Quarter
Aug 15
Full
Aug 23
Last Quarter

Hourly Weather History & Observations

Time (EDT) Temp. Heat Index Dew Point Humidity Pressure Visibility Wind Dir Wind Speed Gust Speed Precip Events Conditions
12:51 AM 60.1 °F - 59.0 °F 96% 30.31 in 10.0 mi Calm Calm - N/A   Clear
1:51 AM 59.0 °F - 57.9 °F 96% 30.31 in 10.0 mi Calm Calm - N/A   Clear
2:51 AM 57.9 °F - 57.0 °F 97% 30.31 in 10.0 mi Calm Calm - N/A   Clear
3:51 AM 57.0 °F - 55.9 °F 96% 30.31 in 10.0 mi Calm Calm - N/A   Clear
4:15 AM 55.9 °F - 55.0 °F 97% 30.32 in 10.0 mi Calm Calm - N/A   Scattered Clouds
4:22 AM 57.0 °F - 55.9 °F 96% 30.32 in 2.0 mi Calm Calm - N/A   Mostly Cloudy
4:24 AM 57.0 °F - 55.9 °F 96% 30.32 in 1.0 mi Calm Calm - N/A   Mist
4:31 AM 57.0 °F - 57.0 °F 100% 30.32 in 0.2 mi Calm Calm - N/A Fog Fog
4:51 AM 55.9 °F - 55.9 °F 100% 30.32 in 0.8 mi Calm Calm - N/A   Mist
5:20 AM 55.9 °F - 55.9 °F 100% 30.32 in 1.2 mi Calm Calm - N/A   Overcast
5:27 AM 57.0 °F - 57.0 °F 100% 30.33 in 0.8 mi Calm Calm - N/A   Mist
5:48 AM 55.4 °F - 55.4 °F 100% 30.33 in 1.2 mi Calm Calm - N/A   Overcast
5:51 AM 55.9 °F - 55.9 °F 100% 30.32 in 1.0 mi Calm Calm - N/A   Mist
6:04 AM 55.0 °F - 55.0 °F 100% 30.33 in 0.8 mi Calm Calm - N/A   Mist
6:10 AM 55.0 °F - 54.0 °F 96% 30.33 in 1.2 mi Calm Calm - N/A   Overcast
6:12 AM 55.0 °F - 54.0 °F 96% 30.33 in 2.5 mi Calm Calm - N/A   Overcast
6:19 AM 55.9 °F - 55.9 °F 100% 30.33 in 7.0 mi Calm Calm - N/A   Overcast
6:36 AM 57.0 °F - 57.0 °F 100% 30.33 in 1.8 mi Calm Calm - N/A   Overcast
6:41 AM 57.0 °F - 57.0 °F 100% 30.33 in 1.0 mi Calm Calm - N/A   Mist
6:51 AM 57.0 °F - 57.0 °F 100% 30.33 in 0.5 mi Calm Calm - N/A Fog Fog
7:51 AM 60.1 °F - 60.1 °F 100% 30.34 in 0.5 mi Calm Calm - N/A Fog Fog
7:56 AM 60.1 °F - 60.1 °F 100% 30.34 in 1.2 mi Calm Calm - N/A   Overcast
7:58 AM 60.1 °F - 60.1 °F 100% 30.34 in 2.0 mi Calm Calm - N/A   Mostly Cloudy
8:06 AM 61.0 °F - 60.1 °F 97% 30.34 in 10.0 mi East 3.5 mph - N/A   Mostly Cloudy
8:51 AM 63.0 °F - 61.0 °F 93% 30.33 in 10.0 mi Calm Calm - N/A   Partly Cloudy
9:51 AM 70.0 °F - 62.1 °F 76% 30.32 in 10.0 mi Calm Calm - N/A   Clear
10:51 AM 78.1 °F - 60.1 °F 54% 30.30 in 10.0 mi SSE 8.1 mph - N/A   Clear
11:51 AM 80.1 °F 81.5 °F 63.0 °F 56% 30.29 in 10.0 mi Calm Calm - N/A   Clear
12:51 PM 81.0 °F 82.2 °F 63.0 °F 54% 30.26 in 10.0 mi Calm Calm - N/A   Mostly Cloudy
1:51 PM 77.0 °F - 64.0 °F 64% 30.25 in 10.0 mi NNE 3.5 mph - 0.01 in   Overcast
2:51 PM 82.0 °F 82.7 °F 61.0 °F 49% 30.22 in 10.0 mi Calm Calm - N/A   Scattered Clouds
3:51 PM 82.9 °F 83.7 °F 62.1 °F 49% 30.20 in 10.0 mi South 9.2 mph - N/A   Clear
4:51 PM 82.9 °F 83.3 °F 61.0 °F 47% 30.18 in 10.0 mi SSW 8.1 mph - N/A   Clear
5:51 PM 81.0 °F 81.7 °F 61.0 °F 50% 30.17 in 10.0 mi South 11.5 mph - N/A   Clear
6:51 PM 79.0 °F - 61.0 °F 54% 30.16 in 10.0 mi South 9.2 mph - N/A   Partly Cloudy
7:51 PM 73.9 °F - 61.0 °F 64% 30.17 in 10.0 mi South 4.6 mph - N/A   Clear
8:51 PM 73.9 °F - 60.1 °F 62% 30.17 in 10.0 mi SSW 8.1 mph - N/A   Clear
9:51 PM 73.0 °F - 59.0 °F 61% 30.17 in 10.0 mi SSW 6.9 mph - N/A   Partly Cloudy
10:51 PM 69.1 °F - 57.9 °F 68% 30.17 in 10.0 mi Calm Calm - N/A   Mostly Cloudy